Location: Newark
(16.3678°N, 77.8722°E)
Time: 21:20:40
(UTC+00:00)

Transit 2A Rocket - All Passes

Search period start: 09 December 2019 00:00
Search period end: 19 December 2019 00:00
Orbit: 594 x 909 km, 66.7° (Epoch: 08 December)

Date Brightness Start Highest point End Pass type
(mag) Time Alt. Az. Time Alt. Az. Time Alt. Az.
09 Dec - 10:07:47 10° S 10:12:43 57° ESE 10:17:15 10° NNE daylight
09 Dec - 20:45:51 10° N 20:50:13 35° ENE 20:54:57 10° SE night (unlit)
09 Dec - 22:29:52 10° WNW 22:32:32 14° WSW 22:35:19 10° SW night (unlit)
10 Dec - 09:26:07 10° SSE 09:30:15 26° ESE 09:34:07 10° NE daylight
10 Dec - 11:09:18 10° WSW 11:12:35 18° WNW 11:15:43 10° NNW daylight
10 Dec - 20:04:33 10° NNE 20:07:42 17° ENE 20:11:00 10° ESE night (unlit)
10 Dec - 21:45:49 10° NW 21:50:04 30° WSW 21:54:39 10° S night (unlit)
11 Dec - 08:45:59 10° SE 08:47:47 12° ESE 08:49:32 10° E daylight
11 Dec - 10:25:29 10° SW 10:30:04 38° WNW 10:34:19 10° N daylight
11 Dec - 21:02:48 10° NNW 21:07:34 65° WSW 21:12:49 10° SSE night (unlit)
12 Dec - 09:42:36 10° SSW 09:47:36 85° WNW 09:52:11 10° NNE daylight
12 Dec - 20:20:23 10° N 20:25:06 59° ENE 20:30:18 10° SSE night (unlit)
13 Dec - 09:00:25 10° S 09:05:08 42° ESE 09:09:29 10° NE daylight
13 Dec - 10:46:36 10° WNW 10:47:32 10° WNW 10:48:27 10° NW daylight
13 Dec - 19:38:31 10° N 19:42:37 28° ENE 19:47:02 10° SE night (unlit)
13 Dec - 21:21:29 10° WNW 21:24:57 19° WSW 21:28:38 10° SSW night (unlit)
14 Dec - 08:19:05 10° SSE 08:22:39 20° ESE 08:26:02 10° ENE daylight
14 Dec - 10:01:09 10° WSW 10:04:58 23° WNW 10:08:35 10° NNW daylight
14 Dec - 18:57:42 10° NE 19:00:05 13° ENE 19:02:32 10° E night (unlit)
14 Dec - 20:37:56 10° NW 20:42:28 39° WSW 20:47:25 10° S night (unlit)
15 Dec - 09:17:43 10° SW 09:22:28 50° WNW 09:26:52 10° N daylight
15 Dec - 19:55:09 10° NNW 20:00:00 85° WSW 20:05:20 10° SSE night (unlit)
16 Dec - 08:35:04 10° SSW 08:40:00 73° ESE 08:44:32 10° NNE daylight
16 Dec - 19:12:54 10° N 19:17:31 45° ENE 19:22:34 10° SE night (unlit)
16 Dec - 20:58:10 10° W 20:59:50 12° WSW 21:01:34 10° SW night (unlit)
17 Dec - 07:53:08 10° S 07:57:32 32° ESE 08:01:37 10° NE daylight
17 Dec - 09:37:28 10° W 09:39:54 14° WNW 09:42:15 10° NW daylight
17 Dec - 18:31:16 10° NNE 18:35:02 22° ENE 18:39:00 10° ESE night (unlit)
17 Dec - 20:13:21 10° NW 20:17:22 25° WSW 20:21:40 10° SSW night (unlit)
18 Dec - 07:12:19 10° SE 07:15:04 15° ESE 07:17:42 10° ENE daylight
18 Dec - 08:53:09 10° SW 08:57:21 29° WNW 09:01:18 10° N daylight
18 Dec - 17:51:43 10° NE 17:52:26 10° ENE 17:53:10 10° ENE night (unlit)
18 Dec - 19:30:08 10° NW 19:34:53 51° WSW 19:40:06 10° S night (unlit)
